QPF
0.00 0.00 0.00 0.00 0.00 0.00 0.00 0.00 0.00 0.00 0.00 0.00 0.00 0.00 0.00 0.00 0.00 0.00 0.01 0.01 0.02 0.04 0.06 0.08 0.10 0.13 0.12 0.09 0.11 0.12 0.11 0.11 0.09 0.09 0.11 0.13 0.15 0.13 0.08 0.06 0.08 0.07 0.08
0.00 0.00 0.00 0.00 0.00 0.00 0.00 0.00 0.00 0.00 0.00 0.00 0.00 0.00 0.00 0.00 0.00 0.01 0.01 0.00 0.01 0.03 0.05 0.07 0.10 0.13 0.12 0.10 0.09 0.11 0.12 0.12 0.09 0.09 0.09 0.11 0.11 0.08 0.06 0.06 0.06 0.07 0.10
0.00 0.00 0.00 0.00 0.00 0.00 0.00 0.00 0.00 0.00 0.00 0.00 0.00 0.00 0.00 0.00 0.00 0.00 0.01 0.00 0.00 0.01 0.03 0.06 0.09 0.12 0.12 0.11 0.12 0.12 0.12 0.11 0.10 0.11 0.10 0.13 0.16 0.13 0.10 0.09 0.07 0.07 0.07
0.00 0.00 0.00 0.00 0.00 0.00 0.00 0.00 0.00 0.00 0.00 0.00 0.00 0.00 0.00 0.00 0.00 0.00 0.00 0.00 0.00 0.01 0.01 0.03 0.07 0.09 0.11 0.12 0.14 0.16 0.12 0.11 0.11 0.12 0.10 0.13 0.19 0.20 0.13 0.10 0.07 0.06 0.06
0.00 0.00 0.00 0.00 0.00 0.00 0.00 0.00 0.00 0.00 0.00 0.00 0.00 0.00 0.00 0.00 0.00 0.00 0.00 0.01 0.01 0.01 0.01 0.01 0.03 0.05 0.08 0.10 0.13 0.18 0.19 0.17 0.14 0.12 0.11 0.11 0.18 0.26 0.18 0.12 0.07 0.06 0.05
0.00 0.00 0.00 0.00 0.00 0.00 0.00 0.00 0.00 0.00 0.00 0.00 0.00 0.00 0.00 0.00 0.00 0.00 0.00 0.00 0.00 0.01 0.01 0.01 0.01 0.02 0.05 0.07 0.12 0.17 0.27 0.25 0.19 0.14 0.13 0.11 0.15 0.26 0.21 0.14 0.08 0.06 0.06
0.00 0.00 0.00 0.00 0.00 0.00 0.00 0.00 0.00 0.00 0.00 0.00 0.00 0.00 0.00 0.00 0.00 0.00 0.00 0.00 0.00 0.01 0.01 0.01 0.01 0.01 0.03 0.04 0.08 0.14 0.28 0.29 0.22 0.17 0.13 0.13 0.14 0.16 0.17 0.14 0.09 0.07 0.07
0.00 0.00 0.00 0.00 0.00 0.00 0.00 0.00 0.00 0.00 0.00 0.00 0.00 0.00 0.00 0.00 0.00 0.00 0.00 0.00 0.01 0.01 0.02 0.01 0.01 0.01 0.01 0.02 0.05 0.10 0.22 0.29 0.23 0.19 0.15 0.14 0.14 0.13 0.12 0.11 0.09 0.08 0.07
0.00 0.00 0.00 0.00 0.00 0.00 0.00 0.00 0.00 0.00 0.00 0.00 0.00 0.00 0.00 0.00 0.00 0.00 0.00 0.01 0.01 0.01 0.03 0.03 0.02 0.01 0.01 0.01 0.03 0.06 0.13 0.25 0.22 0.20 0.17 0.15 0.13 0.11 0.11 0.10 0.08 0.08 0.08
0.00 0.00 0.00 0.00 0.00 0.00 0.00 0.00 0.00 0.00 0.00 0.00 0.00 0.00 0.00 0.00 0.00 0.00 0.01 0.01 0.01 0.02 0.05 0.05 0.03 0.01 0.02 0.02 0.03 0.04 0.07 0.14 0.18 0.19 0.22 0.19 0.15 0.12 0.10 0.08 0.08 0.07 0.08
0.00 0.00 0.00 0.00 0.00 0.00 0.00 0.00 0.00 0.00 0.00 0.00 0.00 0.00 0.00 0.00 0.00 0.01 0.01 0.00 0.00 0.02 0.06 0.07 0.05 0.03 0.02 0.02 0.03 0.04 0.05 0.06 0.10 0.16 0.21 0.21 0.18 0.14 0.12 0.09 0.08 0.07 0.06
0.00 0.00 0.00 0.00 0.00 0.00 0.00 0.00 0.00 0.00 0.00 0.00 0.00 0.00 0.00 0.00 0.00 0.00 0.00 0.00 0.00 0.01 0.04 0.05 0.05 0.06 0.04 0.02 0.03 0.03 0.04 0.04 0.06 0.16 0.18 0.21 0.22 0.19 0.16 0.12 0.11 0.09 0.07
0.00 0.00 0.00 0.00 0.00 0.00 0.00 0.00 0.00 0.00 0.00 0.00 0.00 0.00 0.00 0.00 0.00 0.00 0.00 0.00 0.00 0.01 0.03 0.05 0.05 0.06 0.04 0.04 0.03 0.03 0.02 0.03 0.04 0.11 0.17 0.17 0.20 0.19 0.18 0.16 0.15 0.14 0.12
0.00 0.00 0.00 0.00 0.00 0.00 0.00 0.00 0.00 0.00 0.00 0.00 0.00 0.00 0.00 0.00 0.00 0.00 0.00 0.00 0.00 0.00 0.01 0.04 0.04 0.04 0.03 0.05 0.04 0.03 0.03 0.04 0.04 0.07 0.11 0.16 0.12 0.12 0.13 0.15 0.15 0.17 0.16
0.00 0.00 0.00 0.00 0.00 0.00 0.00 0.00 0.00 0.00 0.00 0.00 0.00 0.00 0.00 0.00 0.00 0.00 0.00 0.00 0.01 0.01 0.01 0.02 0.02 0.03 0.03 0.03 0.06 0.04 0.02 0.03 0.04 0.05 0.08 0.14 0.12 0.08 0.08 0.11 0.13 0.13 0.13
0.00 0.00 0.00 0.00 0.00 0.00 0.00 0.00 0.00 0.00 0.00 0.00 0.00 0.00 0.00 0.00 0.00 0.00 0.00 0.00 0.00 0.01 0.01 0.00 0.01 0.02 0.02 0.03 0.03 0.05 0.04 0.03 0.04 0.06 0.08 0.11 0.15 0.12 0.09 0.10 0.12 0.11 0.10
0.00 0.00 0.00 0.00 0.00 0.00 0.00 0.00 0.00 0.00 0.00 0.01 0.01 0.01 0.01 0.00 0.00 0.00 0.00 0.00 0.00 0.00 0.00 0.00 0.00 0.01 0.02 0.03 0.03 0.03 0.05 0.03 0.03 0.05 0.07 0.07 0.09 0.10 0.11 0.10 0.12 0.12 0.10
0.00 0.00 0.00 0.00 0.00 0.00 0.00 0.00 0.00 0.00 0.01 0.01 0.01 0.01 0.01 0.00 0.00 0.00 0.00 0.00 0.00 0.01 0.01 0.01 0.00 0.01 0.02 0.03 0.04 0.03 0.03 0.04 0.03 0.04 0.06 0.07 0.07 0.07 0.09 0.10 0.09 0.12 0.12
0.00 0.00 0.00 0.00 0.00 0.00 0.00 0.00 0.00 0.01 0.02 0.02 0.02 0.02 0.01 0.00 0.00 0.00 0.00 0.01 0.01 0.01 0.01 0.01 0.01 0.01 0.02 0.03 0.04 0.04 0.03 0.04 0.03 0.02 0.03 0.05 0.07 0.07 0.06 0.07 0.08 0.10 0.13
0.00 0.00 0.00 0.00 0.00 0.00 0.00 0.00 0.01 0.01 0.03 0.03 0.03 0.02 0.01 0.01 0.00 0.00 0.00 0.00 0.01 0.01 0.01 0.01 0.01 0.01 0.02 0.04 0.04 0.05 0.04 0.03 0.03 0.02 0.02 0.03 0.05 0.06 0.06 0.06 0.07 0.07 0.10
0.00 0.00 0.00 0.00 0.00 0.00 0.00 0.00 0.01 0.02 0.03 0.03 0.02 0.01 0.01 0.01 0.01 0.01 0.01 0.01 0.00 0.01 0.01 0.01 0.01 0.02 0.01 0.03 0.04 0.05 0.05 0.04 0.04 0.05 0.04 0.03 0.03 0.04 0.05 0.06 0.05 0.05 0.06
0.00 0.00 0.00 0.00 0.00 0.00 0.00 0.01 0.01 0.01 0.02 0.02 0.02 0.01 0.01 0.01 0.01 0.01 0.01 0.01 0.01 0.01 0.01 0.02 0.01 0.01 0.01 0.02 0.04 0.05 0.06 0.06 0.05 0.04 0.05 0.05 0.04 0.04 0.06 0.05 0.05 0.05 0.06
0.00 0.00 0.00 0.00 0.00 0.00 0.00 0.01 0.01 0.01 0.02 0.02 0.02 0.01 0.00 0.00 0.01 0.01 0.01 0.00 0.00 0.01 0.01 0.01 0.01 0.01 0.02 0.03 0.04 0.07 0.10 0.09 0.06 0.04 0.04 0.06 0.07 0.06 0.07 0.07 0.07 0.06 0.06
0.00 0.00 0.00 0.00 0.00 0.00 0.00 0.00 0.01 0.01 0.02 0.02 0.02 0.01 0.00 0.00 0.01 0.01 0.01 0.00 0.00 0.00 0.01 0.01 0.01 0.02 0.03 0.03 0.04 0.07 0.10 0.12 0.11 0.08 0.06 0.05 0.06 0.06 0.07 0.07 0.08 0.08 0.07
0.00 0.00 0.00 0.00 0.00 0.00 0.00 0.00 0.01 0.01 0.01 0.01 0.02 0.01 0.01 0.01 0.01 0.01 0.01 0.01 0.00 0.00 0.01 0.02 0.03 0.03 0.04 0.06 0.05 0.06 0.06 0.07 0.09 0.10 0.09 0.07 0.06 0.06 0.06 0.06 0.07 0.07 0.08
0.00 0.00 0.00 0.00 0.00 0.00 0.00 0.00 0.01 0.01 0.01 0.02 0.01 0.01 0.01 0.01 0.01 0.01 0.01 0.00 0.00 0.00 0.01 0.02 0.02 0.04 0.04 0.04 0.05 0.06 0.05 0.06 0.06 0.07 0.08 0.08 0.07 0.06 0.06 0.05 0.05 0.05 0.05
MSLP
1017.55 1017.44 1017.23 1016.92 1016.53 1016.10 1015.68 1015.28 1014.94 1014.63 1014.36 1014.09 1013.79 1013.45 1013.08 1012.68 1012.28 1011.94 1011.69 1011.53 1011.47 1011.47 1011.50 1011.49 1011.41 1011.20 1010.88 1010.45 1009.99 1009.54 1009.21 1009.04 1009.10 1009.40 1009.92 1010.61 1011.41 1012.24 1013.05 1013.77 1014.38 1014.89 1015.30
1017.70 1017.59 1017.38 1017.08 1016.70 1016.28 1015.85 1015.45 1015.09 1014.77 1014.49 1014.21 1013.93 1013.61 1013.25 1012.87 1012.50 1012.16 1011.89 1011.71 1011.62 1011.61 1011.65 1011.69 1011.68 1011.60 1011.44 1011.20 1010.93 1010.66 1010.46 1010.38 1010.46 1010.71 1011.13 1011.67 1012.30 1012.96 1013.60 1014.18 1014.70 1015.14 1015.53
1017.76 1017.67 1017.49 1017.22 1016.89 1016.50 1016.10 1015.71 1015.35 1015.03 1014.74 1014.47 1014.19 1013.88 1013.55 1013.18 1012.81 1012.46 1012.16 1011.93 1011.79 1011.73 1011.74 1011.77 1011.81 1011.82 1011.79 1011.70 1011.59 1011.49 1011.42 1011.42 1011.52 1011.75 1012.08 1012.50 1012.99 1013.51 1014.02 1014.51 1014.96 1015.37 1015.76
1017.76 1017.70 1017.57 1017.36 1017.09 1016.77 1016.41 1016.06 1015.72 1015.41 1015.12 1014.85 1014.57 1014.28 1013.95 1013.60 1013.22 1012.85 1012.50 1012.21 1011.99 1011.85 1011.79 1011.78 1011.81 1011.86 1011.90 1011.93 1011.94 1011.96 1011.99 1012.07 1012.21 1012.42 1012.70 1013.04 1013.43 1013.85 1014.29 1014.72 1015.14 1015.55 1015.96
1017.74 1017.71 1017.63 1017.50 1017.31 1017.06 1016.77 1016.46 1016.15 1015.85 1015.57 1015.30 1015.04 1014.75 1014.44 1014.09 1013.72 1013.32 1012.93 1012.57 1012.27 1012.03 1011.87 1011.78 1011.76 1011.79 1011.85 1011.93 1012.02 1012.12 1012.24 1012.38 1012.55 1012.76 1013.02 1013.32 1013.65 1014.02 1014.42 1014.83 1015.25 1015.68 1016.12
1017.73 1017.72 1017.70 1017.64 1017.52 1017.35 1017.13 1016.87 1016.59 1016.31 1016.04 1015.78 1015.53 1015.26 1014.97 1014.65 1014.29 1013.89 1013.47 1013.05 1012.67 1012.33 1012.06 1011.87 1011.77 1011.74 1011.77 1011.85 1011.97 1012.11 1012.27 1012.46 1012.66 1012.88 1013.14 1013.42 1013.74 1014.09 1014.48 1014.89 1015.33 1015.79 1016.26
1017.76 1017.76 1017.76 1017.75 1017.70 1017.59 1017.43 1017.22 1016.98 1016.72 1016.47 1016.23 1016.00 1015.76 1015.51 1015.23 1014.90 1014.52 1014.10 1013.66 1013.22 1012.80 1012.44 1012.14 1011.94 1011.83 1011.79 1011.84 1011.94 1012.09 1012.27 1012.47 1012.70 1012.94 1013.20 1013.49 1013.80 1014.15 1014.54 1014.95 1015.40 1015.88 1016.36
1017.86 1017.84 1017.85 1017.86 1017.85 1017.78 1017.67 1017.50 1017.29 1017.06 1016.83 1016.61 1016.41 1016.22 1016.03 1015.80 1015.53 1015.20 1014.82 1014.38 1013.91 1013.44 1013.01 1012.63 1012.33 1012.12 1012.01 1011.99 1012.05 1012.18 1012.35 1012.56 1012.80 1013.05 1013.33 1013.62 1013.94 1014.28 1014.65 1015.06 1015.50 1015.97 1016.45
1018.06 1017.99 1017.98 1017.98 1017.97 1017.93 1017.84 1017.70 1017.51 1017.31 1017.11 1016.93 1016.77 1016.63 1016.50 1016.34 1016.15 1015.89 1015.55 1015.15 1014.69 1014.21 1013.73 1013.28 1012.90 1012.61 1012.43 1012.34 1012.35 1012.44 1012.59 1012.79 1013.03 1013.29 1013.57 1013.86 1014.17 1014.50 1014.85 1015.23 1015.63 1016.06 1016.50
1018.37 1018.24 1018.18 1018.15 1018.13 1018.08 1018.00 1017.87 1017.70 1017.52 1017.34 1017.19 1017.07 1016.98 1016.90 1016.82 1016.70 1016.51 1016.24 1015.89 1015.46 1014.98 1014.48 1014.00 1013.57 1013.22 1012.97 1012.82 1012.78 1012.82 1012.95 1013.14 1013.37 1013.63 1013.90 1014.19 1014.48 1014.78 1015.09 1015.42 1015.76 1016.13 1016.52
1018.80 1018.61 1018.49 1018.41 1018.35 1018.29 1018.19 1018.06 1017.91 1017.74 1017.57 1017.44 1017.35 1017.29 1017.25 1017.22 1017.15 1017.02 1016.80 1016.50 1016.11 1015.65 1015.16 1014.66 1014.20 1013.81 1013.51 1013.31 1013.22 1013.23 1013.33 1013.50 1013.72 1013.97 1014.24 1014.51 1014.78 1015.04 1015.31 1015.58 1015.86 1016.15 1016.47
1019.35 1019.11 1018.93 1018.80 1018.70 1018.60 1018.49 1018.34 1018.18 1018.01 1017.85 1017.72 1017.63 1017.58 1017.55 1017.53 1017.48 1017.38 1017.20 1016.92 1016.56 1016.12 1015.64 1015.14 1014.67 1014.26 1013.92 1013.69 1013.57 1013.54 1013.61 1013.76 1013.97 1014.21 1014.47 1014.72 1014.97 1015.21 1015.43 1015.64 1015.85 1016.08 1016.33
1020.00 1019.72 1019.50 1019.32 1019.18 1019.04 1018.90 1018.74 1018.56 1018.37 1018.19 1018.05 1017.93 1017.86 1017.82 1017.78 1017.72 1017.60 1017.42 1017.15 1016.80 1016.37 1015.89 1015.40 1014.93 1014.50 1014.14 1013.89 1013.73 1013.68 1013.72 1013.84 1014.03 1014.25 1014.50 1014.74 1014.97 1015.18 1015.38 1015.55 1015.72 1015.90 1016.09
1020.70 1020.40 1020.15 1019.95 1019.77 1019.60 1019.42 1019.23 1019.03 1018.81 1018.61 1018.43 1018.28 1018.16 1018.07 1017.98 1017.87 1017.72 1017.51 1017.22 1016.86 1016.43 1015.96 1015.46 1014.99 1014.55 1014.18 1013.90 1013.71 1013.62 1013.63 1013.71 1013.87 1014.07 1014.29 1014.52 1014.75 1014.95 1015.13 1015.29 1015.44 1015.59 1015.76
1021.38 1021.10 1020.84 1020.62 1020.42 1020.22 1020.02 1019.79 1019.56 1019.31 1019.07 1018.85 1018.65 1018.48 1018.33 1018.18 1018.01 1017.81 1017.55 1017.22 1016.84 1016.40 1015.92 1015.42 1014.94 1014.50 1014.11 1013.80 1013.57 1013.44 1013.39 1013.43 1013.53 1013.69 1013.89 1014.10 1014.31 1014.51 1014.69 1014.86 1015.02 1015.17 1015.33
1021.99 1021.73 1021.49 1021.27 1021.05 1020.83 1020.60 1020.36 1020.09 1019.82 1019.55 1019.29 1019.05 1018.83 1018.62 1018.41 1018.19 1017.92 1017.62 1017.26 1016.84 1016.38 1015.90 1015.40 1014.91 1014.46 1014.05 1013.70 1013.43 1013.23 1013.12 1013.08 1013.11 1013.21 1013.36 1013.53 1013.73 1013.93 1014.12 1014.31 1014.49 1014.67 1014.85
1022.46 1022.23 1022.02 1021.81 1021.59 1021.37 1021.12 1020.86 1020.57 1020.28 1019.99 1019.71 1019.45 1019.19 1018.95 1018.70 1018.43 1018.13 1017.79 1017.40 1016.96 1016.49 1016.00 1015.50 1015.01 1014.54 1014.10 1013.71 1013.38 1013.11 1012.91 1012.78 1012.72 1012.74 1012.81 1012.93 1013.10 1013.28 1013.49 1013.70 1013.91 1014.12 1014.34
1022.74 1022.57 1022.39 1022.20 1022.00 1021.77 1021.52 1021.25 1020.96 1020.66 1020.37 1020.09 1019.82 1019.56 1019.31 1019.04 1018.75 1018.43 1018.06 1017.66 1017.21 1016.74 1016.24 1015.75 1015.25 1014.77 1014.31 1013.88 1013.49 1013.14 1012.84 1012.61 1012.44 1012.35 1012.33 1012.38 1012.49 1012.66 1012.86 1013.08 1013.32 1013.57 1013.82
1022.85 1022.73 1022.59 1022.43 1022.25 1022.04 1021.79 1021.52 1021.24 1020.95 1020.67 1020.40 1020.14 1019.90 1019.65 1019.39 1019.11 1018.78 1018.41 1018.00 1017.55 1017.07 1016.59 1016.09 1015.60 1015.11 1014.63 1014.17 1013.72 1013.30 1012.91 1012.57 1012.29 1012.09 1011.97 1011.93 1011.98 1012.10 1012.28 1012.51 1012.77 1013.05 1013.33
1022.82 1022.74 1022.65 1022.53 1022.37 1022.17 1021.93 1021.67 1021.40 1021.13 1020.86 1020.62 1020.39 1020.17 1019.95 1019.70 1019.42 1019.10 1018.73 1018.31 1017.87 1017.40 1016.91 1016.43 1015.94 1015.46 1014.97 1014.48 1014.00 1013.52 1013.05 1012.62 1012.24 1011.94 1011.71 1011.59 1011.57 1011.64 1011.79 1012.01 1012.27 1012.57 1012.87
1022.69 1022.66 1022.61 1022.52 1022.39 1022.20 1021.98 1021.73 1021.47 1021.21 1020.97 1020.74 1020.54 1020.34 1020.13 1019.90 1019.62 1019.30 1018.92 1018.50 1018.04 1017.57 1017.09 1016.62 1016.14 1015.67 1015.19 1014.71 1014.20 1013.69 1013.18 1012.68 1012.23 1011.83 1011.53 1011.33 1011.24 1011.26 1011.37 1011.58 1011.84 1012.14 1012.46
1022.52 1022.53 1022.52 1022.46 1022.35 1022.17 1021.96 1021.71 1021.45 1021.19 1020.96 1020.75 1020.56 1020.37 1020.17 1019.93 1019.64 1019.30 1018.90 1018.46 1017.99 1017.51 1017.03 1016.56 1016.10 1015.65 1015.20 1014.73 1014.24 1013.72 1013.19 1012.66 1012.16 1011.71 1011.35 1011.09 1010.95 1010.92 1011.01 1011.20 1011.46 1011.76 1012.09
1022.35 1022.40 1022.42 1022.38 1022.27 1022.10 1021.87 1021.61 1021.34 1021.09 1020.85 1020.64 1020.44 1020.24 1020.02 1019.76 1019.45 1019.07 1018.64 1018.16 1017.66 1017.16 1016.68 1016.22 1015.78 1015.36 1014.94 1014.50 1014.04 1013.55 1013.03 1012.49 1011.98 1011.51 1011.11 1010.82 1010.64 1010.60 1010.67 1010.85 1011.11 1011.42 1011.76
1022.20 1022.28 1022.30 1022.26 1022.14 1021.96 1021.71 1021.43 1021.14 1020.86 1020.61 1020.38 1020.17 1019.94 1019.70 1019.40 1019.04 1018.62 1018.14 1017.63 1017.10 1016.58 1016.08 1015.63 1015.21 1014.82 1014.44 1014.04 1013.62 1013.16 1012.67 1012.15 1011.64 1011.16 1010.76 1010.45 1010.27 1010.22 1010.29 1010.48 1010.75 1011.08 1011.44
1022.04 1022.12 1022.14 1022.08 1021.94 1021.72 1021.44 1021.13 1020.82 1020.52 1020.24 1019.99 1019.75 1019.50 1019.22 1018.89 1018.49 1018.02 1017.50 1016.95 1016.39 1015.85 1015.35 1014.90 1014.50 1014.14 1013.79 1013.44 1013.05 1012.62 1012.15 1011.65 1011.15 1010.67 1010.27 1009.96 1009.78 1009.73 1009.83 1010.04 1010.34 1010.71 1011.11
1021.83 1021.90 1021.89 1021.79 1021.61 1021.34 1021.03 1020.69 1020.35 1020.03 1019.73 1019.47 1019.21 1018.94 1018.64 1018.28 1017.85 1017.35 1016.80 1016.22 1015.65 1015.10 1014.60 1014.16 1013.78 1013.44 1013.11 1012.78 1012.41 1011.99 1011.52 1011.02 1010.51 1010.03 1009.61 1009.30 1009.13 1009.10 1009.23 1009.48 1009.84 1010.26 1010.72
Thickness
5721 5720 5718 5718 5716 5715 5714 5713 5712 5712 5711 5711 5711 5712 5712 5713 5714 5715 5717 5720 5722 5724 5726 5729 5731 5733 5736 5739 5741 5745 5747 5747 5748 5750 5752 5754 5755 5756 5758 5759 5760 5761 5761
5719 5718 5716 5715 5714 5712 5711 5710 5709 5709 5708 5708 5707 5708 5708 5709 5710 5711 5713 5716 5718 5721 5723 5726 5728 5730 5733 5736 5738 5742 5745 5744 5745 5748 5750 5751 5753 5754 5755 5756 5757 5758 5758
5717 5716 5714 5713 5711 5710 5709 5708 5707 5706 5705 5705 5704 5704 5705 5705 5706 5707 5709 5712 5714 5717 5720 5722 5725 5727 5730 5733 5735 5737 5740 5742 5743 5745 5747 5749 5751 5752 5753 5754 5755 5756 5757
5715 5714 5712 5710 5709 5708 5707 5705 5703 5701 5701 5700 5700 5701 5701 5702 5703 5704 5706 5708 5710 5713 5716 5719 5721 5724 5727 5729 5732 5734 5737 5739 5741 5743 5745 5746 5748 5750 5751 5752 5752 5753 5754
5713 5712 5710 5708 5707 5706 5704 5702 5700 5698 5696 5696 5697 5698 5698 5698 5699 5701 5702 5704 5707 5709 5713 5715 5718 5721 5724 5726 5729 5732 5734 5737 5739 5741 5742 5743 5745 5747 5750 5751 5751 5751 5751
5711 5710 5708 5707 5705 5703 5701 5699 5697 5695 5694 5693 5695 5695 5695 5696 5696 5697 5699 5701 5703 5706 5709 5712 5714 5717 5720 5723 5726 5729 5732 5734 5736 5738 5740 5741 5742 5744 5748 5748 5748 5748 5748
5709 5708 5706 5704 5702 5700 5698 5696 5694 5692 5691 5691 5690 5689 5691 5693 5693 5694 5696 5697 5699 5702 5705 5708 5711 5713 5717 5720 5723 5726 5729 5732 5735 5737 5737 5738 5740 5741 5742 5742 5743 5744 5745
5707 5706 5704 5702 5700 5697 5696 5694 5691 5689 5687 5687 5684 5681 5679 5683 5688 5691 5692 5693 5695 5698 5701 5704 5707 5710 5713 5716 5720 5723 5726 5729 5733 5734 5735 5736 5737 5738 5739 5740 5740 5741 5742
5706 5704 5702 5700 5697 5695 5693 5691 5689 5686 5683 5683 5681 5678 5673 5671 5676 5684 5686 5688 5691 5693 5696 5700 5703 5706 5709 5712 5716 5719 5722 5726 5729 5730 5731 5733 5734 5735 5736 5737 5737 5738 5739
5704 5702 5700 5698 5696 5693 5691 5689 5688 5684 5682 5679 5678 5677 5675 5673 5671 5673 5679 5683 5686 5689 5692 5696 5699 5702 5705 5708 5712 5715 5718 5721 5724 5725 5727 5729 5730 5732 5733 5733 5734 5735 5736
5702 5700 5698 5696 5694 5692 5689 5687 5685 5683 5680 5677 5676 5674 5673 5672 5671 5669 5670 5675 5680 5685 5689 5692 5695 5698 5702 5705 5708 5711 5714 5717 5719 5721 5724 5725 5727 5728 5729 5731 5731 5732 5733
5699 5698 5696 5694 5692 5690 5687 5685 5683 5681 5679 5677 5675 5673 5671 5670 5669 5668 5667 5669 5672 5679 5685 5689 5691 5695 5698 5701 5704 5707 5710 5713 5715 5717 5720 5722 5723 5724 5726 5727 5728 5729 5730
5694 5694 5693 5691 5689 5687 5685 5683 5681 5679 5677 5675 5674 5672 5671 5671 5670 5668 5667 5667 5669 5674 5679 5684 5688 5691 5694 5697 5700 5703 5706 5709 5712 5714 5716 5717 5719 5721 5722 5723 5724 5725 5726
5691 5691 5690 5688 5687 5685 5683 5681 5679 5677 5675 5674 5673 5672 5671 5671 5670 5669 5668 5667 5666 5669 5673 5678 5684 5687 5690 5693 5696 5699 5702 5705 5708 5710 5712 5714 5715 5717 5718 5718 5720 5721 5722
5689 5688 5687 5685 5683 5681 5679 5677 5675 5673 5672 5671 5670 5670 5669 5669 5669 5669 5668 5667 5665 5664 5667 5673 5677 5683 5686 5689 5693 5696 5698 5701 5704 5706 5708 5710 5712 5713 5713 5715 5716 5717 5718
5685 5684 5683 5681 5679 5677 5675 5673 5670 5668 5667 5666 5666 5666 5666 5667 5667 5667 5666 5666 5666 5664 5664 5669 5673 5678 5682 5685 5689 5692 5694 5697 5699 5702 5704 5706 5708 5709 5710 5711 5712 5713 5714
5681 5679 5677 5676 5673 5671 5670 5667 5665 5663 5662 5661 5661 5661 5662 5662 5663 5663 5663 5663 5663 5663 5663 5667 5670 5674 5677 5680 5684 5687 5690 5692 5694 5697 5699 5702 5703 5704 5705 5706 5707 5708 5709
5676 5674 5672 5670 5668 5666 5663 5661 5659 5657 5655 5654 5654 5654 5655 5657 5657 5658 5659 5660 5660 5661 5661 5663 5666 5669 5672 5675 5678 5681 5685 5687 5689 5692 5694 5696 5698 5700 5701 5702 5703 5703 5704
5670 5668 5666 5663 5661 5659 5657 5655 5652 5651 5649 5648 5647 5647 5648 5649 5651 5653 5654 5655 5656 5658 5658 5659 5661 5664 5666 5670 5672 5675 5678 5681 5684 5686 5688 5691 5692 5694 5695 5697 5698 5699 5699
5663 5661 5659 5657 5655 5653 5651 5649 5646 5644 5642 5642 5641 5641 5642 5643 5645 5647 5649 5650 5652 5652 5653 5654 5656 5658 5660 5663 5665 5667 5670 5673 5676 5679 5682 5684 5686 5687 5689 5691 5692 5694 5694
5657 5655 5652 5650 5648 5646 5645 5643 5641 5639 5636 5636 5635 5635 5636 5638 5640 5642 5644 5645 5646 5647 5647 5648 5649 5651 5654 5656 5658 5660 5662 5665 5668 5671 5673 5676 5678 5680 5683 5685 5686 5688 5689
5649 5647 5645 5643 5640 5639 5638 5637 5635 5633 5631 5629 5629 5629 5630 5632 5634 5636 5638 5640 5640 5640 5641 5641 5643 5645 5648 5650 5652 5653 5654 5655 5658 5663 5664 5667 5670 5672 5675 5678 5680 5681 5683
5641 5639 5637 5635 5632 5631 5631 5631 5630 5627 5625 5623 5623 5622 5624 5625 5626 5627 5630 5632 5633 5634 5635 5635 5637 5638 5640 5643 5644 5644 5646 5648 5651 5655 5654 5657 5661 5664 5667 5670 5672 5674 5676
5633 5631 5629 5626 5625 5624 5624 5624 5623 5621 5619 5618 5616 5616 5615 5616 5618 5619 5620 5622 5623 5625 5627 5628 5629 5632 5634 5635 5636 5637 5638 5640 5643 5646 5647 5648 5652 5655 5659 5661 5664 5666 5668
5625 5623 5621 5618 5616 5615 5616 5615 5615 5613 5611 5610 5609 5608 5608 5608 5610 5611 5611 5611 5613 5615 5618 5619 5621 5623 5625 5626 5627 5626 5627 5629 5633 5637 5639 5640 5643 5645 5648 5651 5655 5657 5659
5618 5616 5613 5611 5608 5607 5607 5607 5606 5605 5603 5602 5601 5600 5600 5600 5601 5602 5600 5600 5601 5604 5606 5609 5610 5612 5614 5615 5616 5617 5618 5619 5622 5626 5631 5631 5634 5635 5637 5642 5644 5647 5649